ROMMA est une association bénévole à but non lucratif. Votre soutien est indispensable : ADHERER à ROMMA ou FAIRE un DON

Saint-Martin-d'Hères - (38, Isère)

Vallée du Grésivaudan (220 m)   Longitude: 05° 45' 05" E   Latitude: 45° 10' 02" N Station partenaire n°4
 

Détail journalier du     <<     >>

Température Precipitation Humidité Pression Vent Dir Rafale Dir. rafale Ensol.
Heure (°C) (mm) (%) (hPa) (km/h) (km/h) (min)
01:00 12.6092102300---0
02:00 12.1093102300---0
03:00 11.6094102300---0
04:00 11.3094102300---0
05:00 10.8095102200---0
06:00 10.6095102200---0
07:00 10.0095102200---0
08:00 10.0096102200---0
09:00 10.2096102200---0
10:00 11.1096102200---0
11:00 13.9095102200---20
12:00 18.6069102106NNO60
13:00 22.0055102002NNO60
14:00 23.2051101803NO60
15:00 24.904610171NO8NNO60
16:00 26.403910161O8NNO60
17:00 26.903710161NO16NNO60
18:00 24.904110151NO11NO30
19:00 21.8060101605NNO10
20:00 18.3069101600---0
21:00 17.2074101700---0
22:00 15.9076101700---0
23:00 15.1080101700---0
minuit 14.2083101702NO0

Graphique du 05-10-2018

 

Serveur OMMA